Dewpoint
54 53 53 52 51 49 49 49 48 48 49 50 49 49 47 46 45 42 42 56 56 53 51 51 50 49 47 46 45 46 47 49 52 53 55 57 58 60 62 63 63 65 66
56 54 53 51 51 51 51 51 49 49 48 48 49 50 49 48 48 48 45 47 56 55 53 51 51 51 50 50 49 46 45 45 47 49 52 54 56 57 60 62 64 64 65
54 56 54 54 53 55 56 56 54 52 50 48 48 48 49 50 49 50 48 47 47 55 56 54 53 52 52 51 51 50 49 48 47 47 49 50 52 55 57 60 64 64 65
50 49 47 48 50 51 52 54 55 54 52 50 50 48 46 48 49 51 50 49 47 45 52 55 55 54 53 52 52 52 51 51 50 49 48 48 49 52 55 57 61 63 64
47 47 45 45 48 45 46 47 47 50 52 52 52 51 50 48 48 46 49 50 52 49 47 53 55 56 56 54 53 53 52 51 52 51 50 49 49 49 53 55 57 59 62
45 45 43 45 45 43 44 44 46 45 46 47 49 50 52 53 54 52 50 48 50 52 51 50 49 49 55 56 55 54 54 53 52 52 51 51 50 50 50 54 55 57 60
41 39 37 38 40 40 43 44 43 44 43 44 45 44 43 47 51 51 48 48 50 49 51 51 50 48 48 55 55 54 54 54 54 53 53 52 51 51 51 51 55 55 58
39 36 39 37 38 36 38 39 40 39 40 42 43 42 40 40 41 44 47 49 51 51 49 51 51 51 50 48 51 54 54 55 54 54 54 55 53 51 51 52 53 55 56
37 38 38 38 38 36 35 38 37 38 35 36 40 42 40 35 40 40 44 47 50 53 52 51 51 51 51 50 50 52 54 55 56 55 55 56 54 53 52 52 52 53 55
37 37 38 39 39 38 38 37 34 37 36 34 34 34 42 44 40 37 38 42 45 45 50 51 53 51 51 51 51 52 52 53 54 56 56 55 54 54 53 52 52 53 54
38 37 38 39 38 37 38 38 38 38 36 34 33 33 35 34 38 40 37 38 39 40 43 46 48 51 52 53 54 52 51 51 51 54 56 56 55 56 54 53 52 52 52
37 38 38 39 39 38 37 37 38 37 36 35 35 34 33 33 34 36 37 37 37 37 40 43 44 46 49 49 50 51 52 49 50 52 53 54 56 56 56 54 53 51 51
37 38 39 39 37 38 38 37 36 36 35 34 35 35 34 35 35 33 33 31 31 33 36 38 40 40 41 47 50 50 50 49 49 50 51 52 53 54 56 56 54 52 50
37 38 37 37 37 37 37 36 35 36 36 34 33 33 36 36 35 35 34 32 31 30 32 36 35 39 42 44 47 50 48 48 48 48 49 51 51 52 53 55 55 54 53
36 37 38 37 36 36 36 38 37 36 36 35 35 34 34 33 35 35 35 36 33 30 27 28 30 36 38 41 47 48 49 47 48 47 47 49 50 51 51 53 53 53 53
37 37 37 36 36 35 36 36 36 36 35 37 36 33 34 35 33 33 36 35 35 34 32 29 29 31 35 35 40 44 45 45 47 46 46 47 48 49 50 51 51 52 52
38 38 36 35 35 35 35 36 34 34 34 34 35 35 34 35 36 35 34 33 33 34 34 31 29 31 34 37 38 41 42 42 45 47 45 45 45 46 47 48 49 50 50
39 38 36 35 34 34 35 34 35 34 33 32 32 32 33 32 33 34 34 34 33 33 33 30 30 31 33 37 37 39 40 38 41 43 45 45 45 44 45 45 46 47 47
37 36 35 34 33 34 34 34 34 34 33 33 34 34 33 33 33 33 33 32 33 32 34 33 30 31 31 31 34 35 37 39 41 43 45 44 44 44 44 44 45 45 45
37 35 35 33 34 33 33 33 32 33 34 34 34 34 33 33 32 31 31 32 31 32 32 35 32 30 30 31 32 34 34 37 39 38 40 40 42 44 44 44 44 44 44
39 36 35 34 34 34 32 34 34 35 35 35 36 34 36 35 33 33 32 33 33 34 33 31 33 30 28 30 30 32 32 33 36 40 40 43 41 43 46 45 45 44 43
38 36 34 33 34 33 34 35 36 36 36 36 36 36 35 36 35 33 32 33 34 34 33 36 29 30 28 29 29 33 35 35 35 38 41 43 45 45 45 47 43 42 42
36 35 34 33 34 36 35 36 35 36 35 35 35 35 35 36 36 33 34 35 34 34 32 33 34 31 30 29 32 31 33 34 36 41 42 41 44 44 46 41 41 41 41
34 35 34 34 35 36 35 35 35 37 37 36 35 35 35 33 34 35 35 32 32 32 34 34 33 31 31 31 33 32 36 37 38 39 41 41 47 46 45 44 41 41 40
33 34 33 34 35 37 35 35 35 36 36 36 34 34 33 33 33 33 32 33 34 35 34 34 34 33 33 33 33 34 36 35 35 36 42 43 45 46 47 45 44 41 41
32 32 32 35 34 35 34 34 35 35 36 35 35 33 33 33 32 33 33 34 32 34 35 36 36 35 34 33 33 34 32 32 33 35 42 43 42 45 44 47 45 44 43
Lifted_Index
1 1 1 1 1 2 2 2 2 2 2 2 2 2 3 3 3 3 3 2 2 2 2 3 3 3 4 4 5 6 6 6 6 5 4 2 1 0 -0 -0 -0 -1 -1
1 1 1 1 1 1 2 2 2 2 2 2 2 2 2 2 2 2 2 2 2 2 2 2 3 3 3 3 4 5 6 6 6 6 5 4 2 1 1 0 -0 -1 -1
3 2 2 2 2 2 2 1 1 1 1 1 1 1 1 1 1 1 1 2 2 3 2 2 2 2 2 2 3 3 4 5 6 6 6 6 5 3 2 1 -0 -1 -1
5 5 4 4 4 4 3 2 2 1 1 1 1 1 1 1 1 1 1 1 2 2 3 2 2 2 2 2 2 2 3 3 4 5 6 6 6 5 3 2 1 -0 -0
7 7 6 6 6 6 5 5 4 4 3 2 2 2 1 1 1 1 1 1 1 2 2 2 2 2 2 2 2 1 2 2 3 4 5 5 6 6 5 3 2 0 0
9 9 8 8 8 8 7 7 7 6 5 4 4 3 2 1 1 1 1 1 1 1 1 2 2 2 2 2 2 1 1 1 2 3 4 4 5 6 5 4 3 2 1
10 10 10 10 10 10 9 9 9 8 7 6 6 5 4 3 2 2 1 1 1 1 1 1 1 1 2 2 2 2 1 1 1 2 3 4 4 5 6 5 4 3 2
11 11 11 11 11 11 11 11 10 10 9 8 8 7 6 5 4 3 2 2 1 1 1 1 1 1 1 1 2 2 2 1 1 1 2 3 4 5 5 5 5 4 4
11 11 11 12 12 12 12 12 12 12 11 10 10 9 8 7 6 5 4 3 3 2 1 1 1 1 1 1 1 2 2 2 2 1 1 2 3 4 5 5 5 5 4
11 11 12 12 12 12 12 12 12 12 12 12 11 10 10 9 8 8 7 6 5 4 3 3 2 2 1 1 1 2 2 3 2 2 2 2 2 3 4 5 5 5 5
11 11 11 11 12 12 12 12 12 13 13 12 12 12 11 11 11 10 9 8 8 7 6 5 4 3 2 2 2 2 3 3 3 3 3 2 2 2 3 4 5 5 5
10 11 11 11 12 12 12 13 13 13 13 13 13 13 12 12 12 12 11 11 10 9 8 7 6 5 4 4 3 3 4 4 4 4 4 3 3 2 3 3 4 5 5
10 10 11 12 12 12 13 13 14 14 14 14 14 14 13 13 13 13 13 12 12 11 10 9 8 7 6 6 5 5 5 5 5 5 5 5 4 3 3 3 4 5 5
10 11 11 12 13 13 14 14 14 14 14 14 14 14 14 13 13 14 14 13 13 13 12 11 10 9 8 7 6 6 6 5 5 5 5 5 5 5 4 4 4 5 5
11 11 12 13 13 14 14 14 14 14 14 14 14 14 13 13 13 13 14 13 13 13 13 12 12 11 10 8 8 7 7 6 6 5 5 5 5 6 6 5 5 5 5
11 12 13 13 14 14 14 15 14 14 14 14 14 14 13 13 13 13 13 13 13 13 13 13 12 12 11 10 9 9 8 7 6 6 6 6 6 6 6 6 6 6 6
11 12 13 13 13 14 14 14 14 14 14 14 14 13 13 12 12 12 12 12 12 12 12 12 12 12 12 11 10 10 9 8 7 6 6 6 7 7 6 6 6 6 7
12 12 13 13 13 13 14 14 14 14 14 13 13 12 12 12 12 11 11 11 11 11 11 12 12 12 12 11 11 11 10 9 8 7 6 6 6 7 6 6 6 6 6
12 12 12 13 13 13 13 14 14 13 13 12 12 11 11 11 10 10 10 10 10 10 10 10 11 11 11 11 11 10 10 9 8 7 7 6 7 7 7 6 5 5 6
12 12 12 13 13 13 13 13 13 13 12 11 10 9 9 9 9 9 9 9 9 9 9 9 9 10 10 10 10 10 10 9 9 8 7 6 6 6 6 6 5 5 5
12 12 12 13 13 12 12 12 12 11 10 9 8 8 8 8 8 8 8 8 7 7 7 7 8 9 9 9 9 9 9 9 8 8 7 6 6 5 5 5 5 5 5
12 12 12 12 12 12 12 11 11 10 9 8 7 7 7 7 7 7 7 7 7 7 7 7 7 8 8 8 8 8 8 8 8 7 6 6 5 4 4 4 4 5 6
12 12 12 12 11 11 11 11 10 9 8 7 7 7 7 7 7 7 7 7 7 7 7 7 7 7 8 8 8 8 8 8 7 7 6 5 5 4 4 4 5 5 6
12 12 12 11 11 11 11 10 9 8 7 7 8 8 8 8 8 8 7 7 7 7 7 7 7 7 8 8 8 8 8 8 7 6 5 5 5 4 4 4 5 6 7
11 11 11 11 11 11 10 10 9 8 7 7 8 8 8 9 8 8 8 8 7 7 7 7 7 8 8 8 9 9 8 8 7 6 5 4 4 4 4 4 4 6 6
11 11 11 11 11 11 10 10 9 8 7 7 8 8 9 9 9 9 8 8 7 7 7 7 7 7 8 9 9 9 9 8 7 6 5 4 4 4 4 3 4 5 6